Greenwood, MS

6:06 PM CDT on March 27, 2017 (GMT -0500)
Greenwood-Leflore

Weather History for KGWO - February, 2013

Change the Weather History Date:

Monday, February 25, 2013

  Actual Average Record
Temperature  
Mean Temperature 58 °F 50 °F  
Max Temperature 66 °F 61 °F 81 °F (1996)
Min Temperature 50 °F 39 °F 20 °F (1965)
Degree Days  
Heating Degree Days 7 15  
Month to date heating degree days 450 449  
Since 1 July heating degree days 2017 2188  
Cooling Degree Days 0 0  
Month to date cooling degree days 0 0  
Year to date cooling degree days 12 2  
Growing Degree Days 7 (Base 50)    
Moisture  
Dew Point 49 °F    
Average Humidity 72    
Maximum Humidity 93    
Minimum Humidity 50    
Precipitation  
Precipitation 0.57 in 0.15 in 1.51 in (1957)
Month to date precipitation 3.82 3.96  
Year to date precipitation 12.46 8.48  
Sea Level Pressure  
Sea Level Pressure 29.57 in    
Wind  
Wind Speed 15 mph (ESE)    
Max Wind Speed 33 mph    
Max Gust Speed 40 mph    
Visibility 8 miles    
Events Rain    
T = Trace of Precipitation, MM = Missing Value Source: NWS Daily Summary

Daily Weather History Graph

Daily Weather History Graph

Search for Another Location

Airport or City:

Trip Planner

Search our weather history database for the weather conditions in past years. The results will help you decide how hot, cold, wet, or windy it might be!

Date:

Astronomy

Feb. 25, 2013 Rise Set
Actual Time 6:33 AM CST 5:53 PM CST
Civil Twilight 6:08 AM CST 6:19 PM CST
Nautical Twilight 5:39 AM CST 6:47 PM CST
Astronomical Twilight 5:10 AM CST 7:16 PM CST
Moon 6:04 PM CST (2/25) 6:05 AM CST (2/25)
Length of Visible Light 12h 10m
Length of Day
11h 20m
Full, 100% of the Moon is Illuminated
Feb 25
Full
Feb 25
Full
Mar 4
Last Quarter
Mar 11
New
Mar 19
First Quarter

Hourly Weather History & Observations

Time (CST) Temp. Dew Point Humidity Pressure Visibility Wind Dir Wind Speed Gust Speed Precip Events Conditions
12:53 AM 52.0 °F 36.0 °F 54% 29.82 in 10.0 mi East 13.8 mph 21.9 mph N/A   Clear
1:53 AM 52.0 °F 36.0 °F 54% 29.79 in 10.0 mi East 18.4 mph 25.3 mph N/A   Clear
2:53 AM 54.0 °F 35.1 °F 49% 29.76 in 10.0 mi East 12.7 mph - N/A   Mostly Cloudy
3:53 AM 52.0 °F 37.9 °F 59% 29.75 in 10.0 mi East 13.8 mph - 0.00 in   Overcast
4:53 AM 50.0 °F 39.9 °F 68% 29.76 in 10.0 mi ENE 10.4 mph - N/A   Overcast
5:53 AM 50.0 °F 39.9 °F 68% 29.77 in 10.0 mi ENE 10.4 mph - N/A   Overcast
6:53 AM 50.0 °F 39.0 °F 66% 29.77 in 10.0 mi ENE 11.5 mph - N/A   Overcast
7:53 AM 52.0 °F 39.9 °F 63% 29.78 in 10.0 mi East 11.5 mph - N/A   Overcast
8:53 AM 54.0 °F 42.1 °F 64% 29.75 in 10.0 mi East 18.4 mph 26.5 mph N/A   Overcast
9:53 AM 54.0 °F 42.1 °F 64% 29.77 in 10.0 mi East 8.1 mph 16.1 mph N/A   Overcast
10:53 AM 55.0 °F 43.0 °F 64% 29.75 in 10.0 mi ESE 9.2 mph - N/A   Overcast
11:53 AM 59.0 °F 46.9 °F 64% 29.70 in 10.0 mi ESE 10.4 mph 17.3 mph N/A   Mostly Cloudy
12:53 PM 63.0 °F 50.0 °F 63% 29.65 in 10.0 mi ESE 15.0 mph - N/A   Mostly Cloudy
1:53 PM 64.9 °F 55.0 °F 70% 29.59 in 10.0 mi ESE 12.7 mph - 0.03 in   Mostly Cloudy
2:53 PM 64.0 °F 54.0 °F 70% 29.55 in 10.0 mi ESE 23.0 mph 31.1 mph N/A   Mostly Cloudy
3:53 PM 61.0 °F 54.0 °F 78% 29.53 in 10.0 mi ESE 24.2 mph 32.2 mph N/A   Mostly Cloudy
4:37 PM 60.8 °F 53.6 °F 77% 29.49 in 10.0 mi ESE 25.3 mph 38.0 mph 0.00 in Rain Light Rain
4:53 PM 57.9 °F 55.0 °F 90% 29.47 in 6.0 mi ESE 24.2 mph 36.8 mph 0.01 in Rain Light Rain
5:14 PM 57.2 °F 55.4 °F 94% 29.51 in 5.0 mi SE 17.3 mph 25.3 mph 0.02 in Rain Rain
5:30 PM 57.2 °F 55.4 °F 94% 29.52 in 1.8 mi SE 13.8 mph 24.2 mph 0.19 in Rain Heavy Rain
5:41 PM 57.2 °F 55.4 °F 94% 29.47 in 3.0 mi ESE 21.9 mph 28.8 mph 0.23 in Rain Rain
5:53 PM 57.0 °F 55.9 °F 96% 29.47 in 10.0 mi ESE 21.9 mph 28.8 mph 0.23 in Rain Light Rain
6:15 PM 57.2 °F 55.4 °F 94% 29.46 in 5.0 mi ESE 17.3 mph 29.9 mph 0.03 in Rain Light Rain
6:30 PM 57.2 °F 55.4 °F 94% 29.43 in 8.0 mi ESE 20.7 mph 28.8 mph 0.04 in Rain Light Rain
6:53 PM 57.9 °F 55.9 °F 93% 29.41 in 7.0 mi ESE 23.0 mph 33.4 mph 0.05 in Rain Light Rain
7:26 PM 59.0 °F 55.4 °F 88% 29.36 in 10.0 mi ESE 24.2 mph 35.7 mph 0.02 in Rain Light Rain
7:53 PM 60.1 °F 57.0 °F 90% 29.35 in 10.0 mi ESE 21.9 mph 34.5 mph 0.02 in   Overcast
8:44 PM 59.0 °F 57.2 °F 94% 29.40 in 1.2 mi South 32.2 mph 36.8 mph 0.19 in Rain Heavy Rain
8:53 PM 57.9 °F 55.9 °F 93% 29.41 in 4.0 mi South 29.9 mph 40.3 mph 0.21 in Rain Light Rain
9:03 PM 57.2 °F 55.4 °F 94% 29.42 in 6.0 mi SW 17.3 mph 33.4 mph 0.01 in Rain Light Rain
9:13 PM 57.2 °F 53.6 °F 88% 29.42 in 9.0 mi SW 13.8 mph 20.7 mph 0.01 in Rain Light Rain
9:53 PM 57.0 °F 54.0 °F 89% 29.43 in 10.0 mi South 9.2 mph - 0.01 in Rain Light Rain
10:53 PM 54.0 °F 53.1 °F 97% 29.43 in 10.0 mi SSW 8.1 mph - 0.01 in   Overcast
11:53 PM 54.0 °F 53.1 °F 97% 29.43 in 10.0 mi SSW 8.1 mph - N/A   Mostly Cloudy